Hourly Data Report for March 01, 2017

MIRAMICHI RCS
NEW BRUNSWICK

47°00'34.000" N
65°27'54.000" W
33.00 m
8100989
71744
ACQ

Download Data

Hourly Data (March 2017)
Hourly Data Report for March 1, 2017
TIME
LST
Temp Definition
°C
Dew Point Definition
°C
Rel Hum Definition
%
Precip. Amount Definition
mm

Wind Dir Definition
10's deg

Wind Spd Definition
km/h
Visibility Definition
km
Stn Press Definition
kPa
Hmdx Definition


Wind Chill Definition


Weather Definition


00:00 -6.2 -8.6 83 0.0   0   101.91     LegendNANA
01:00 -6.0 -8.0 86 0.0 3 2   101.83   -7 LegendNANA
02:00 -5.4 -8.0 82 0.0   0   101.69     LegendNANA
03:00 -5.9 -7.8 86 0.0 2 1   101.55   -6 LegendNANA
04:00 -3.9 -7.6 75 0.0 1 1   101.42   -4 LegendNANA
05:00 -3.8 -6.1 84 0.0   0   101.32     LegendNANA
06:00 -3.6 -5.1 89 0.0 7 7   101.09   -7 LegendNANA
07:00 -2.3 -3.2 93 0.0 7 4   100.90   -4 LegendNANA
08:00 -1.0 -1.8 95 0.2 8 1   100.76   -1 LegendNANA
09:00 0.1 -0.5 95 0.8 18 3   100.62     LegendNANA
10:00 0.2 -0.3 96 2.6 6 6   100.37     LegendNANA
11:00 0.7 0.1 96 1.9 3 1   100.18     LegendNANA
12:00 0.6 0.1 96 1.8 33 4   100.00     LegendNANA
13:00 1.3 0.8 96 1.3   0   99.81     LegendNANA
14:00 0.9 0.4 96 1.0 7 1   99.56     LegendNANA
15:00 1.3 0.9 97 3.3 4 4   99.39     LegendNANA
16:00 1.2 0.8 97 2.3 6 10   99.18     LegendNANA
17:00 0.9 0.4 97 2.5 6 8   99.10     LegendNANA
18:00 0.8 0.4 98 1.2 3 3   98.94     LegendNANA
19:00 1.1 0.8 98 2.8 3 3   98.83     LegendNANA
20:00 1.0 0.6 97 0.5 4 3   98.68     LegendNANA
21:00 1.5 1.2 98 0.3 1 4   98.58     LegendNANA
22:00 1.5 1.2 98 0.3 2 5   98.55     LegendNANA
23:00 1.1 0.6 97 2.0 3 7   98.56     LegendNANA

Notes on Data Quality.

Legend

  • E = Estimated
  • M = Missing
  • NA = Not Available*
  • [empty] = Indicates an unobserved value
Date modified: